This demonstration page uses our WeatherBlox Daily Observations layout. Learn more.

Left ArrowRight Arrow

40.97296, -117.73568

Hourly Observations for May 25, 2022

Temp ( °F °C ) Dew Point ( °F °C ) Humidity (%) Winds ( mph kmh ) Pressure ( in mb ) Visibility ( mi km ) Precip ( " mm )
12:56 am 00:56 Clear 46 8 N/A N/A SSE 8 13 29.97 1015 10 16 0.00 0.00
1:56 am 01:56 Clear 46 8 N/A N/A ESE 6 9 29.96 1015 10 16 0.00 0.00
2:56 am 02:56 Clear 41 5 N/A N/A SSE 7 11 29.98 1015 10 16 0.00 0.00
3:56 am 03:56 Clear 45 7 N/A N/A E 6 9 29.96 1015 10 16 0.00 0.00
4:56 am 04:56 Clear 39 4 N/A N/A E 3 6 29.98 1015 10 16 0.00 0.00
5:56 am 05:56 Sunny 41 5 N/A N/A SE 5 7 29.98 1015 10 16 0.00 0.00
6:56 am 06:56 Sunny 52 11 N/A N/A Calm 29.98 1015 10 16 0.00 0.00
7:56 am 07:56 Sunny 63 17 N/A N/A ENE 3 6 29.97 1015 10 16 0.00 0.00
8:56 am 08:56 Sunny 69 20.6 30 -1.1 23 23 VRB 6 9 29.98 1015 10 16 0.00 0.00
9:56 am 09:56 Sunny 73 22.8 30 -1.1 20 20 VRB 3 6 29.98 1015 10 16 0.00 0.00
10:56 am 10:56 Sunny 78 25.6 30 -1.1 17 17 Calm 29.95 1014 10 16 0.00 0.00
11:56 am 11:56 Sunny 82 27.8 32 0 16 16 NNW 6 9 29.92 1013 10 16 0.00 0.00
12:56 pm 12:56 Sunny 84 28.9 32 0 15 15 VRB 3 6 29.90 1013 10 16 0.00 0.00
1:56 pm 13:56 Sunny 87 30.6 31 -0.6 13 13 undefined N/A 29.88 1012 10 16 0.00 0.00
2:39 pm 14:39 Sunny 87 30.6 27 -2.8 11 11 WNW 9 15 29.61 1003 10 16 0.00 0.00
2:56 pm 14:56 Sunny 87 30.6 25 -3.9 10 10 W 14 22 29.87 1011 10 16 0.00 0.00
3:56 pm 15:56 Sunny 87 30.6 26 -3.3 11 11 undefined N/A 29.83 1010 10 16 0.00 0.00
4:56 pm 16:56 Sunny 87 30.6 25 -3.9 10 10 W 6 9 29.83 1010 10 16 0.00 0.00
5:56 pm 17:56 Sunny 86 30 26 -3.3 11 11 SSW 7 11 29.81 1009 10 16 0.00 0.00
6:56 pm 18:56 Sunny 84 28.9 28 -2.2 13 13 SSW 6 9 29.79 1009 10 16 0.00 0.00
7:56 pm 19:56 Sunny 80 26.7 26 -3.3 14 14 N 5 7 29.78 1008 10 16 0.00 0.00
8:56 pm 20:56 Clear 69 20.6 26 -3.3 20 20 Calm 29.80 1009 10 16 0.00 0.00
9:56 pm 21:56 Clear 59 15 26 -3.3 28 28 S 5 7 29.82 1010 10 16 0.00 0.00
10:56 pm 22:56 Clear 57 13.9 30 -1.1 36 36 SSE 10 17 29.81 1010 10 16 0.00 0.00
11:56 pm 23:56 Clear 63 17.2 26 -3.3 25 25 SW 8 13 29.79 1009 10 16 0.00 0.00

Powered by AerisWeather